Other Public Products
Issued by NWS Grand Forks, ND

Home | Current Version | Previous Version | Graphics & Text | Print | Product List | Glossary On
Versions: 1 2 3 4 5 6 7 8 9 10 11 12 13 14 15 16 17 18 19 20 21 22 23 24 25 26 27 28 29 30 31 32 33 34 35 36 37 38 39 40 41 42 43 44 45 46 47 48 49 50
000
FPUS83 KFGF 052031
OPUFGF
PRAIRIE TO PINES WEATHER ROUNDUP
NATIONAL WEATHER SERVICE EASTERN NORTH DAKOTA/GRAND FORKS ND
300 PM CDT SUN JUL 05 2015

 **SATELLITE DATA USED TO AUGMENT SKY COVER AT AUTOMATED STATIONS**
 *****  WEATHER ACROSS EASTERN NORTH DAKOTA  *****

CITY           SKY/WX    TMP DP  RH WIND       PRES   REMARKS
GRAND FORKS    CLOUDY    72  66  83 NW8       29.77R
GRAND FORKS AF CLOUDY    72  66  83 NW5       29.78R
GRAND CITY NWS   N/A     70 N/A N/A NW2         N/A
BUXTON         NOT AVBL
DEVILS LAKE    CLOUDY    72  63  73 N8        29.81S
FARGO          CLOUDY    82  69  64 SW3       29.71F
WAHPETON ARPT  CLOUDY    82  68  61 CALM      29.74F
$$

 *****  WEATHER ACROSS CENTRAL AND WESTERN NORTH DAKOTA  *****

CITY           SKY/WX    TMP DP  RH WIND       PRES   REMARKS
JAMESTOWN      CLOUDY    75  66  73 NW13      29.79R
BISMARCK       PTSUNNY   79  63  57 N16G26    29.85R
MINOT          CLOUDY    74  60  61 NW14      29.89R HAZE
MINOT AFB      SUNNY     77  67  70 NW13      29.88R
GARRISON         N/A     76  59  55 N16       29.90R
WILLISTON      MOSUNNY   76  48  37 N16G23    29.97S
DICKINSON      CLOUDY    70  59  68 N18G30    29.91F
HETTINGER      CLOUDY    73  60  63 N14       29.94R
$$

 *****  OTHER OBSERVATIONS NORTHEAST NORTH DAKOTA  *****

CITY           SKY/WX    TMP DP  RH WIND       PRES   REMARKS
WALHALLA       FAIR      68  68 100 MISG      29.81S FOG
LANGDON        FAIR      72  63  73 N14       29.84S HAZE
CAVALIER       CLOUDY    70  66  88 NW7       29.79S
GRAFTON        CLOUDY    72  72 100 NW13      29.78R
CANDO          FAIR      73  63  68 N10       29.85S HAZE
FORT TOTTEN      N/A     77  69  75 N6        29.95S
ROLLA          FAIR      68  63  83 N15       29.88S HAZE
RUGBY          NOT AVBL
 ***** THE ABOVE OBSERVATIONS ARE NON NWS ARE NOT QUALITY
        CONTROLLED AND MAY MIS-REPORT RAIN FOR SNOW...
$$

 *****  OTHER OBSERVATIONS SOUTHEAST NORTH DAKOTA *****

CITY           SKY/WX    TMP DP  RH WIND       PRES   REMARKS
COOPERSTOWN    NOT AVBL
VALLEY CITY    FAIR      77  72  83 NW7       29.78R
OAKES            N/A     77  75  94 N10       29.75F
GWINNER        FAIR      81  72  74 W3        29.77R
BUFFALO        NOT AVBL
WYNDMERE       NOT AVBL
 ***** THE ABOVE OBSERVATIONS ARE NON NWS ARE NOT QUALITY
       CONTROLLED AND MAY MIS-REPORT RAIN FOR SNOW...
$$

  *****  WEATHER ACROSS NORTHERN MINNESOTA  *****

CITY           SKY/WX    TMP DP  RH WIND       PRES   REMARKS
FLAG ISLAND    LGT RAIN  66  64  94 SW5       29.71F
WARROAD        CLOUDY    68  64  88 CALM      29.73F
ROSEAU         CLOUDY    68  63  83 CALM      29.73F
HALLOCK        CLOUDY    70  66  88 NW10      29.77R
THF RVR FALLS  CLOUDY    68  64  88 S8        29.76S
HALSTAD        NOT AVBL
FOSSTON        LGT RAIN  72  66  83 CALM      29.77F
BAUDETTE       LGT RAIN  70  65  84 W12G20    29.73F
WASKISH        CLOUDY    75  66  73 W10G17    29.77F
CROOKSTON      CLOUDY    68  68 100 SE8       29.76F
$$
  *****  WEATHER ACROSS CENTRAL AND WEST MINNESOTA  *****

CITY           SKY/WX    TMP DP  RH WIND       PRES   REMARKS
BEMIDJI        CLOUDY    77  67  73 N7        29.78F
PARK RAPIDS    CLOUDY    87  64  46 SW14      29.79F
WADENA         CLOUDY    84  66  54 S10       29.80R
DETROIT LAKES  CLOUDY    82  64  54 S12       29.78F
MOORHEAD       CLOUDY    81  72  74 E3        29.74S
FERGUS FALLS   CLOUDY    82  70  65 S12       29.75F
ELBOW LAKE     FAIR      83  70  63 SE12      29.78F
MORRIS MN      PTSUNNY   90  70  51 S13G21    29.77F HX  95
STAPLES        PTSUNNY   88  63  42 S12       29.80S
WHEATON        PTSUNNY   84  70  61 SW5       29.76F
$$
  *****  WEATHER ELSEWHERE ACROSS MINNESOTA  *****

CITY           SKY/WX    TMP DP  RH WIND       PRES   REMARKS
DULUTH         MOSUNNY   82  66  58 S18G25    29.85F
INTRNTL FALLS  CLOUDY    78  68  71 SW12G22   29.76R
ELY            PTSUNNY   82  64  54 S12G18    29.82F
CLOQUET        PTSUNNY   81  64  57 S14       29.85F
BRAINERD       PTSUNNY   85  64  49 S13       29.81F
HIBBING        PTSUNNY   82  67  60 S10G17    29.81F
ALEXANDRIA     CLOUDY    84  66  54 S16       29.82F
SAINT CLOUD    MOSUNNY   84  68  58 SE16G22   29.83F
MINNEAPOLIS    PTSUNNY   86  68  54 S17G24    29.86F
$$

  *****  WEATHER ACROSS SOUTH DAKOTA  *****

CITY           SKY/WX    TMP DP  RH WIND       PRES   REMARKS
SIOUX FALLS    MOSUNNY   89  68  49 S16G25    29.80S HX  93
BROOKINGS      SUNNY     88  66  48 S12       29.82S HX  90
WATERTOWN      MOSUNNY   87  70  56 SW12      29.79F HX  92
HURON          MOSUNNY   89  72  56 VRB6      29.75S HX  96
SISSETON         N/A     87  69  54 NW13      29.75S HX  91
ABERDEEN       CLOUDY    88  71  57 W6        29.75F HX  94
MITCHELL       MOSUNNY   91  70  49 S13G18    29.76F HX  96
PIERRE         PTSUNNY   87  70  56 E8        29.75S HX  92
MOBRIDGE       PTSUNNY   83  69  62 E8        29.77R
RAPID CITY     CLOUDY    79  65  62 N18G24    29.90S
$$

  *****  SOME WEATHER IN NEARBY STATES *****

CITY           SKY/WX    TMP DP  RH WIND       PRES   REMARKS
GLASGOW MT     MOSUNNY   69  50  50 NW14G21   30.06S
GREAT FALLS MT LGT RAIN  51  49  92 E10       30.18R FOG
CHEYENNE WY    TSTM      66  59  78 E14       30.05R
SCOTTSBLUFF NE PTSUNNY   94  55  26 VRB7      29.83F HX  92
OMAHA NE       PTSUNNY   88  73  61 SE23G29   29.84F HX  95
DES MOINES IA  PTSUNNY   86  69  56 S14       29.93S HX  90
DAVENPORT IA   SUNNY     82  65  56 S9        30.01F
CHICAGO IL     MOSUNNY   82  60  47 S7        30.04F
EAU CLAIRE WI  PTSUNNY   84  64  50 S14G20    29.94R
LA CROSSE WI   PTSUNNY   85  64  49 S14       29.95S
$$

  *****  SOME NATIONAL WEATHER *****

CITY           SKY/WX    TMP DP  RH WIND       PRES   REMARKS
LA GUARDIA NY  PTSUNNY   84  58  40 W6        30.09F
RALEIGH NC     PTSUNNY   90  70  51 S9G17     30.06F HX  95
ATLANTA GA     PTSUNNY   84  65  52 W7        30.11F
NEW ORLEANS LA PTSUNNY   92  73  53 SW10      30.07F HX 100
OKLAHOMA CITY  MOSUNNY   92  73  53 S16       29.94F HX 100
ALBUQUERQUE NM MOSUNNY   88  53  30 CALM      30.09F
SALT LAKE CITY MOSUNNY   83  59  44 VRB3      30.02F
LOS ANGELES CA CLOUDY    68  61  78 SW10      30.00F
BOISE ID       CLOUDY    83  51  33 NW7       29.95R
SEATTLE WA     PTSUNNY   85  50  29 NE3       29.86S
$$

*** WEATHER ACROSS MANITOBA...SASKATCHEWAN AND ONTARIO ***
                ***ONTARIO***

CITY           SKY/WX    TMP DP  RH WIND       PRES   REMARKS
GERALDTON      PTSUNNY   75  64  69 S12G21    29.86R HAZE
THUNDER BAY    CLOUDY    72  63  73 NE7       29.84F
SIOUX LOOKOUT  LGT RAIN  68  66  94 CALM      29.76F
TORONTO        PTSUNNY   77  63  61 SE9       30.09S
BIG TROUT LK   MOSUNNY   66  59  77 SW6       29.68S HAZE
PICKLE LAKE    LGT RAIN  72  63  73 SW3       29.74F
DRYDEN         LGT RAIN  68  66  94 NW3       29.74F
KENORA         LGT RAIN  66  66 100 SW5       29.73F FOG
$$
                *** MANITOBA***

CITY           SKY/WX    TMP DP  RH WIND       PRES   REMARKS
BRANDON        PTSUNNY   72  54  53 NW12      29.86S SMOKE
DAUPHIN        SUNNY     73  52  46 NW13G18   29.84S HAZE
ISLAND LAKE    CLOUDY    63  55  77 NW12      29.72R SMOKE
PILOT MOUND      N/A     68  59  73 NW12        N/A
THE PAS        CLOUDY    57  45  62 N16G23    29.91R
THOMPSON       LGT RAIN  45  43  93 N12G21    29.82R
WINNIPEG       CLOUDY    68  64  88 NW7       29.79F SMOKE
LYNN LAKE      CLOUDY    50  41  71 N16G25    29.97R
CHURCHILL      LGT RAIN  41  41 100 N30G39    29.75R FOG
GILLAM         CLOUDY    48  41  76 NW21      29.68R
$$
                ***SASKATCHEWAN***

CITY           SKY/WX    TMP DP  RH WIND       PRES   REMARKS
ESTEVAN        CLOUDY    73  52  46 NW17G25   29.95R SMOKE
KINDERSLEY     CLOUDY    63  48  59 N12       30.09R
LLOYDMINSTER   CLOUDY    55  46  71 N13       30.11S
PRINCE ALBERT  CLOUDY    57  50  77 N14G22    30.02R SMOKE
REGINA         CLOUDY    70  50  49 NW16G28   30.00R
YORKTON        SUNNY     70  52  52 NW15G23   29.92R



USA.gov is the U.S. government's official web portal to all federal, state and local government web resources and services.